• In Spain
  • List of Countries
  • For 7 days
  • Water Temperature
  • Satellite Maps
  • Weather Map
  • Weather Widgets
  • user-avatar
    Login

    Hourly Weather Stara Zagora

    Today, 15 November, Thursday

    Time Temperature Precipitation Wind Pressure Humidity
    00:00 +8°C° 0 mm 0 mps 747 mmHg 81%
    01:00 +8°C° 0 mm 0 mps 746 mmHg 81%
    02:00 +10°C° 0 mm 1 mps 746 mmHg 80%
    03:00 +9°C° 0.2 mm 1 mps 746 mmHg 82%
    04:00 +9°C° 0.2 mm 1 mps 746 mmHg 83%
    05:00 +9°C° 0.2 mm 1 mps 746 mmHg 84%
    06:00 +9°C° 1.2 mm 1 mps 746 mmHg 84%
    07:00 +8°C° 1.2 mm 2 mps 746 mmHg 85%
    08:00 +7°C° 1.2 mm 2 mps 746 mmHg 85%
    09:00 +8°C° 0.3 mm 2 mps 746 mmHg 79%
    10:00 +9°C° 0.3 mm 2 mps 747 mmHg 73%
    11:00 +10°C° 0.3 mm 3 mps 747 mmHg 66%
    12:00 +10°C° 0.1 mm 3 mps 747 mmHg 63%
    13:00 +11°C° 0.1 mm 3 mps 747 mmHg 59%
    14:00 +11°C° 0.1 mm 4 mps 746 mmHg 56%
    15:00 +10°C° 0 mm 3 mps 746 mmHg 59%
    16:00 +9°C° 0 mm 2 mps 746 mmHg 62%
    17:00 +9°C° 0 mm 2 mps 746 mmHg 65%
    18:00 +8°C° 0 mm 2 mps 747 mmHg 67%
    19:00 +8°C° 0 mm 2 mps 747 mmHg 69%
    20:00 +8°C° 0 mm 1 mps 747 mmHg 72%
    21:00 +8°C° 0 mm 1 mps 747 mmHg 73%
    22:00 +8°C° 0 mm 1 mps 747 mmHg 75%
    23:00 +8°C° 0 mm 1 mps 748 mmHg 76%

    Tomorrow, 16 November, Friday

    Time Temperature Precipitation Wind Pressure Humidity
    00:00 +7°C° 0 mm 1 mps 748 mmHg 78%
    01:00 +7°C° 0 mm 1 mps 748 mmHg 79%
    02:00 +6°C° 0 mm 1 mps 748 mmHg 81%
    03:00 +6°C° 0 mm 1 mps 748 mmHg 82%
    04:00 +5°C° 0 mm 2 mps 748 mmHg 82%
    05:00 +4°C° 0 mm 2 mps 748 mmHg 83%
    06:00 +4°C° 0 mm 2 mps 749 mmHg 82%
    07:00 +4°C° 0 mm 2 mps 749 mmHg 80%
    08:00 +4°C° 0 mm 2 mps 749 mmHg 79%
    09:00 +5°C° 0 mm 2 mps 749 mmHg 73%
    10:00 +5°C° 0 mm 3 mps 750 mmHg 67%
    11:00 +7°C° 0 mm 3 mps 750 mmHg 61%
    12:00 +8°C° 0 mm 3 mps 750 mmHg 60%
    13:00 +7°C° 0 mm 4 mps 749 mmHg 59%
    14:00 +7°C° 0 mm 4 mps 749 mmHg 57%
    15:00 +6°C° 0 mm 4 mps 749 mmHg 61%
    16:00 +5°C° 0 mm 3 mps 750 mmHg 64%
    17:00 +4°C° 0 mm 3 mps 750 mmHg 67%
    18:00 +4°C° 0 mm 3 mps 750 mmHg 69%
    19:00 +3°C° 0 mm 3 mps 751 mmHg 70%
    20:00 +4°C° 0 mm 2 mps 751 mmHg 72%
    21:00 +3°C° 0 mm 2 mps 751 mmHg 73%
    22:00 +3°C° 0 mm 2 mps 752 mmHg 73%
    23:00 +3°C° 0 mm 2 mps 752 mmHg 74%

    Day after tomorrow, 17 November, Saturday

    Time Temperature Precipitation Wind Pressure Humidity
    00:00 +2°C° 0 mm 2 mps 752 mmHg 75%
    01:00 +2°C° 0 mm 2 mps 752 mmHg 76%
    02:00 +3°C° 0 mm 1 mps 752 mmHg 77%
    03:00 +3°C° 0 mm 1 mps 752 mmHg 78%
    04:00 +2°C° 0 mm 1 mps 752 mmHg 79%
    05:00 +2°C° 0 mm 1 mps 751 mmHg 80%
    06:00 +2°C° 0 mm 1 mps 752 mmHg 80%
    07:00 +2°C° 0 mm 1 mps 752 mmHg 79%
    08:00 +3°C° 0 mm 1 mps 752 mmHg 78%
    09:00 +3°C° 0 mm 2 mps 752 mmHg 72%
    10:00 +4°C° 0 mm 2 mps 752 mmHg 66%
    11:00 +5°C° 0 mm 2 mps 752 mmHg 60%
    12:00 +6°C° 0 mm 2 mps 751 mmHg 59%
    13:00 +6°C° 0 mm 2 mps 751 mmHg 59%
    14:00 +7°C° 0 mm 2 mps 751 mmHg 58%
    15:00 +6°C° 0 mm 2 mps 751 mmHg 62%
    16:00 +6°C° 0 mm 2 mps 751 mmHg 66%
    17:00 +5°C° 0 mm 2 mps 751 mmHg 70%
    18:00 +5°C° 0 mm 2 mps 751 mmHg 71%
    19:00 +5°C° 0 mm 2 mps 751 mmHg 72%
    20:00 +4°C° 0 mm 2 mps 751 mmHg 74%
    21:00 +4°C° 0 mm 2 mps 751 mmHg 74%
    22:00 +4°C° 0 mm 2 mps 751 mmHg 75%
    23:00 +4°C° 0 mm 2 mps 751 mmHg 76%

    18 November, Sunday

    Time Temperature Precipitation Wind Pressure Humidity
    00:00 +4°C° 0 mm 2 mps 750 mmHg 76%
    01:00 +4°C° 0 mm 2 mps 750 mmHg 76%
    02:00 +3°C° 0 mm 2 mps 750 mmHg 76%
    03:00 +3°C° 0 mm 2 mps 750 mmHg 76%
    04:00 +4°C° 0 mm 1 mps 750 mmHg 77%
    05:00 +4°C° 0 mm 1 mps 749 mmHg 77%
    06:00 +4°C° 0 mm 1 mps 749 mmHg 76%
    07:00 +4°C° 0 mm 1 mps 749 mmHg 75%
    08:00 +4°C° 0 mm 1 mps 749 mmHg 73%
    09:00 +5°C° 0 mm 1 mps 749 mmHg 69%
    10:00 +6°C° 0 mm 1 mps 749 mmHg 64%
    11:00 +7°C° 0 mm 1 mps 749 mmHg 59%
    12:00 +7°C° 0 mm 1 mps 748 mmHg 58%
    13:00 +8°C° 0 mm 1 mps 747 mmHg 56%
    14:00 +7°C° 0 mm 2 mps 747 mmHg 54%
    15:00 +8°C° 0 mm 1 mps 746 mmHg 57%
    16:00 +7°C° 0 mm 1 mps 746 mmHg 59%
    17:00 +7°C° 0 mm 1 mps 745 mmHg 62%
    18:00 +6°C° 0 mm 1 mps 745 mmHg 63%
    19:00 +6°C° 0 mm 1 mps 745 mmHg 64%
    20:00 +6°C° 0 mm 1 mps 745 mmHg 65%
    21:00 +6°C° 0 mm 1 mps 744 mmHg 66%
    22:00 +6°C° 0 mm 1 mps 744 mmHg 66%
    23:00 +6°C° 0 mm 1 mps 744 mmHg 66%

    19 November, Monday

    Time Temperature Precipitation Wind Pressure Humidity
    00:00 +5°C° 0.2 mm 1 mps 743 mmHg 67%
    01:00 +5°C° 0.2 mm 1 mps 743 mmHg 69%
    02:00 +5°C° 0.2 mm 1 mps 743 mmHg 70%
    03:00 +5°C° 0.4 mm 1 mps 742 mmHg 71%
    04:00 +5°C° 0.4 mm 1 mps 742 mmHg 73%
    05:00 +5°C° 0.4 mm 1 mps 742 mmHg 74%
    06:00 +5°C° 0.3 mm 1 mps 742 mmHg 75%
    07:00 +5°C° 0.3 mm 1 mps 742 mmHg 76%
    08:00 +5°C° 0.3 mm 1 mps 742 mmHg 76%
    09:00 +6°C° 0.1 mm 1 mps 742 mmHg 76%
    10:00 +6°C° 0.1 mm 2 mps 742 mmHg 75%
    11:00 +6°C° 0.1 mm 2 mps 742 mmHg 75%
    12:00 +6°C° 0.1 mm 2 mps 741 mmHg 76%
    13:00 +7°C° 0.1 mm 2 mps 741 mmHg 77%
    14:00 +7°C° 0.1 mm 2 mps 741 mmHg 79%
    15:00 +7°C° 0.1 mm 2 mps 741 mmHg 81%
    16:00 +8°C° 0.1 mm 1 mps 741 mmHg 83%
    17:00 +7°C° 0.1 mm 1 mps 741 mmHg 86%
    18:00 +8°C° 0.1 mm 1 mps 741 mmHg 87%
    19:00 +8°C° 0.1 mm 1 mps 741 mmHg 88%
    20:00 +8°C° 0.1 mm 1 mps 741 mmHg 90%
    21:00 +8°C° 0 mm 1 mps 742 mmHg 91%
    22:00 +8°C° 0 mm 1 mps 742 mmHg 92%
    23:00 +8°C° 0 mm 1 mps 742 mmHg 93%

    20 November, Tuesday

    Time Temperature Precipitation Wind Pressure Humidity
    00:00 +8°C° 0 mm 1 mps 742 mmHg 94%
    01:00 +8°C° 0 mm 1 mps 742 mmHg 95%
    02:00 +8°C° 0 mm 1 mps 742 mmHg 95%
    03:00 +8°C° 0 mm 1 mps 742 mmHg 95%
    04:00 +8°C° 0 mm 1 mps 742 mmHg 95%
    05:00 +8°C° 0 mm 1 mps 742 mmHg 95%
    06:00 +8°C° 0 mm 1 mps 742 mmHg 95%
    07:00 +9°C° 0 mm 1 mps 742 mmHg 95%
    08:00 +9°C° 0 mm 1 mps 742 mmHg 95%
    09:00 +9°C° 0 mm 2 mps 742 mmHg 90%
    10:00 +10°C° 0 mm 3 mps 742 mmHg 86%
    11:00 +11°C° 0 mm 4 mps 742 mmHg 82%
    12:00 +12°C° 0 mm 3 mps 741 mmHg 81%
    13:00 +12°C° 0 mm 3 mps 741 mmHg 80%
    14:00 +12°C° 0 mm 3 mps 741 mmHg 78%
    15:00 +12°C° 0.1 mm 3 mps 740 mmHg 82%
    16:00 +12°C° 0.1 mm 3 mps 740 mmHg 85%
    17:00 +11°C° 0.1 mm 3 mps 740 mmHg 89%
    18:00 +12°C° 0 mm 3 mps 740 mmHg 90%
    19:00 +12°C° 0 mm 3 mps 740 mmHg 91%
    20:00 +12°C° 0 mm 3 mps 740 mmHg 92%
    21:00 +12°C° 0.2 mm 3 mps 739 mmHg 92%
    22:00 +12°C° 0.2 mm 3 mps 739 mmHg 92%
    23:00 +12°C° 0.2 mm 3 mps 739 mmHg 92%
    Show more